TimeCST,TemperatureF,Dew PointF,Humidity,Sea Level PressureIn,VisibilityMPH,Wind Direction,Wind SpeedMPH,Gust SpeedMPH,PrecipitationIn,Events,Conditions,WindDirDegrees,DateUTC
12:53 AM,25.0,18.0,75,30.20,10.0,NNW,10.4,-,N/A,,Mostly Cloudy,330,2012-11-26 06:53:00
1:53 AM,25.0,12.9,60,30.23,10.0,NNW,10.4,-,N/A,,Mostly Cloudy,340,2012-11-26 07:53:00
2:53 AM,24.1,10.9,57,30.25,10.0,NNW,9.2,-,N/A,,Clear,330,2012-11-26 08:53:00
3:53 AM,23.0,10.0,58,30.25,10.0,NNW,9.2,-,N/A,,Clear,340,2012-11-26 09:53:00
4:44 AM,21.2,10.4,63,30.24,10.0,NNW,8.1,-,N/A,,Mostly Cloudy,330,2012-11-26 10:44:00
4:53 AM,21.9,10.0,60,30.27,10.0,NNW,10.4,-,N/A,,Mostly Cloudy,330,2012-11-26 10:53:00
5:53 AM,21.9,10.9,63,30.29,10.0,NNW,11.5,-,N/A,,Overcast,340,2012-11-26 11:53:00
6:53 AM,19.9,7.0,57,30.32,10.0,NNW,16.1,-,N/A,,Overcast,340,2012-11-26 12:53:00
7:53 AM,18.0,6.1,60,30.36,10.0,NNW,15.0,-,N/A,,Scattered Clouds,340,2012-11-26 13:53:00
8:53 AM,17.1,6.1,62,30.40,10.0,NW,16.1,25.3,N/A,,Clear,320,2012-11-26 14:53:00
9:53 AM,17.1,3.9,56,30.43,10.0,NNW,17.3,-,N/A,,Clear,330,2012-11-26 15:53:00
10:53 AM,18.0,6.1,60,30.43,10.0,NNW,12.7,-,N/A,,Clear,340,2012-11-26 16:53:00
11:53 AM,21.0,6.1,53,30.42,10.0,NNW,16.1,-,N/A,,Clear,340,2012-11-26 17:53:00
12:53 PM,21.9,3.9,46,30.43,10.0,NW,17.3,-,N/A,,Clear,320,2012-11-26 18:53:00
1:53 PM,23.0,3.9,44,30.42,10.0,NNW,12.7,-,N/A,,Clear,340,2012-11-26 19:53:00
2:53 PM,23.0,3.9,44,30.41,10.0,NW,15.0,-,N/A,,Clear,320,2012-11-26 20:53:00
3:53 PM,21.9,3.9,46,30.43,10.0,NNW,12.7,-,N/A,,Clear,340,2012-11-26 21:53:00
4:53 PM,18.0,3.9,54,30.43,10.0,NW,9.2,-,N/A,,Clear,320,2012-11-26 22:53:00
5:53 PM,14.0,3.0,62,30.46,10.0,NW,6.9,-,N/A,,Clear,310,2012-11-26 23:53:00
6:53 PM,12.9,3.9,67,30.46,10.0,NW,9.2,-,N/A,,Clear,310,2012-11-27 00:53:00
7:53 PM,10.9,1.9,67,30.47,10.0,NW,6.9,-,N/A,,Clear,310,2012-11-27 01:53:00
8:53 PM,12.0,3.0,67,30.48,10.0,West,6.9,-,N/A,,Clear,270,2012-11-27 02:53:00
9:53 PM,10.9,3.0,70,30.47,10.0,West,4.6,-,N/A,,Clear,260,2012-11-27 03:53:00
10:53 PM,10.0,3.0,73,30.46,10.0,Calm,Calm,-,N/A,,Clear,0,2012-11-27 04:53:00
11:53 PM,9.0,3.0,77,30.45,10.0,SSW,4.6,-,N/A,,Clear,210,2012-11-27 05:53:00